Tracking 30970 objects as of 3-Jul-2025
HD Live streaming from Space Station
objects crossing your sky now

OSCAR 29

Track OSCAR 29 now!
10-day predictions
OSCAR 29 is classified as:


NORAD ID: 18362
Int'l Code: 1987-080B
Perigee: 1,021.1 km
Apogee: 1,178.9 km
Inclination: 90.4 °
Period: 107.1 minutes
Semi major axis: 7471 km
RCS: 1.4883 m2 (large)
Launch date: September 16, 1987
Source: United States (US)
Launch site: AIR FORCE WESTERN TEST RANGE (AFWTR)
Your satellite tracking list
Your tracking list is empty




NASA's NSSDC Master Catalog

Two Line Element Set (TLE):
1 18362U 87080B   25183.92634898  .00000047  00000-0  65532-4 0  9997
2 18362  90.3725  73.7151 0105608 354.8225  16.1588 13.44417066853226
Source of the keplerian elements: AFSPC